VK2RZ Weather Reports


Display with metric or nautical units.
time (UTC)temp
F
wind
direction
speed
MPH
gust
MPH
rain 1hr
in
rain 24hr
in
rain mn
in
humidity
%
barometer
mb
20260904140728 61 301 3.0 8.0 0.00 0.00 0.00 6 1018.3
20260904135728 61 293 3.0 6.0 0.00 0.00 0.00 6 1018.2
20260904134728 61 294 3.0 4.0 0.00 0.00 0.00 6 1018.3
20260904133728 60 292 1.0 3.0 0.00 0.00 0.00 7 1018.3
20260904132728 59 0 0.0 0.0 0.00 0.00 0.00 7 1018.5
20260904131728 58 0 0.0 1.0 0.00 0.00 0.00 7 1018.5
20260904130728 59 291 2.0 4.0 0.00 0.00 0.00 7 1018.6
20260904125728 58 292 3.0 9.0 0.00 0.00 0.00 8 1018.7
20260904124728 58 0 0.0 1.0 0.00 0.00 0.00 8 1018.8
20260904123728 58 0 0.0 2.0 0.00 0.00 0.00 8 1019.1
20260904122728 58 0 0.0 0.0 0.00 0.00 0.00 8 1019.2
20260904121728 58 316 3.0 3.0 0.00 0.00 0.00 8 1019.3
20260904120728 59 0 0.0 1.0 0.00 0.00 0.00 8 1019.4
20260904115728 59 0 0.0 2.0 0.00 0.00 0.00 8 1019.3
20260904114728 59 345 1.0 2.0 0.00 0.00 0.00 8 1019.3
20260904113728 60 345 2.0 4.0 0.00 0.00 0.00 8 1019.4
20260904112728 60 0 0.0 0.0 0.00 0.00 0.00 7 1019.5
20260904111728 60 345 1.0 4.0 0.00 0.00 0.00 7 1019.5
20260904110728 60 345 1.0 5.0 0.00 0.00 0.00 7 1019.5
20260904105728 61 0 0.0 4.0 0.00 0.00 0.00 7 1019.2
20260904104728 61 346 1.0 4.0 0.00 0.00 0.00 7 1019.3
20260904103728 61 346 1.0 4.0 0.00 0.00 0.00 7 1019.2
20260904102728 61 349 2.0 4.0 0.00 0.00 0.00 7 1019.0
20260904101728 61 349 1.0 5.0 0.00 0.00 0.00 7 1018.9
20260904100728 61 346 1.0 4.0 0.00 0.00 0.00 7 1019.0
20260904095728 61 346 1.0 5.0 0.00 0.00 0.00 7 1018.9
20260904094728 61 341 1.0 4.0 0.00 0.00 0.00 7 1018.6
20260904093728 61 0 0.0 2.0 0.00 0.00 0.00 7 1018.6
20260904092727 60 341 4.0 4.0 0.00 0.00 0.00 7 1018.5
20260904091727 61 339 4.0 6.0 0.00 0.00 0.00 7 1018.3
20260904090727 61 350 2.0 5.0 0.00 0.00 0.00 7 1018.3
20260904085727 60 35 3.0 4.0 0.00 0.00 0.00 7 1018.3
20260904084727 60 0 0.0 0.0 0.00 0.00 0.00 7 1018.2
20260904083727 61 0 0.0 0.0 0.00 0.00 0.00 7 1018.2
20260904082727 61 36 1.0 3.0 0.00 0.00 0.00 7 1018.0
20260904081727 61 0 0.0 2.0 0.00 0.00 0.00 7 1017.9
20260904080727 61 0 0.0 2.0 0.00 0.00 0.00 6 1017.9
20260904075727 62 36 1.0 3.0 0.00 0.00 0.00 6 1017.9
20260904074727 62 37 2.0 3.0 0.00 0.00 0.00 6 1017.8
20260904073727 62 0 0.0 2.0 0.00 0.00 0.00 6 1017.6
20260904072727 62 37 1.0 3.0 0.00 0.00 0.00 7 1017.4
20260904071727 62 0 0.0 1.0 0.00 0.00 0.00 7 1017.2
20260904070727 62 37 1.0 2.0 0.00 0.00 0.00 7 1017.1
20260904065727 63 0 0.0 0.0 0.00 0.00 0.00 6 1017.1
20260904064727 64 37 2.0 2.0 0.00 0.00 0.00 6 1017.0
20260904063727 64 35 3.0 3.0 0.00 0.00 0.00 6 1016.9
20260904062727 64 37 2.0 6.0 0.00 0.00 0.00 6 1017.0
20260904061727 65 12 2.0 8.0 0.00 0.00 0.00 6 1017.0
20260904060727 65 46 3.0 5.0 0.00 0.00 0.00 6 1017.0
20260904055727 65 43 6.0 10.0 0.00 0.00 0.00 6 1017.0
20260904054727 66 20 2.0 8.0 0.00 0.00 0.00 6 1017.2
20260904053727 67 46 3.0 7.0 0.00 0.00 0.00 6 1017.2
20260904052727 67 56 4.0 8.0 0.00 0.00 0.00 6 1017.2
20260904051727 67 89 6.0 8.0 0.00 0.00 0.00 6 1017.2
20260904050727 67 116 5.0 9.0 0.00 0.00 0.00 6 1017.4
20260904045727 70 175 3.0 3.0 0.00 0.00 0.00 5 1017.4
20260904044726 72 193 1.0 4.0 0.00 0.00 0.00 4 1017.6
20260904043726 72 247 2.0 3.0 0.00 0.00 0.00 4 1017.7
20260904042726 73 256 3.0 4.0 0.00 0.00 0.00 4 1017.6
20260904041726 71 288 1.0 2.0 0.00 0.00 0.00 4 1017.7
20260904040726 72 272 1.0 9.0 0.00 0.00 0.00 4 1018.0
20260904035726 72 295 3.0 3.0 0.00 0.00 0.00 4 1017.9
20260904034726 71 251 1.0 6.0 0.00 0.00 0.00 4 1018.0
20260904033726 71 262 3.0 6.0 0.00 0.00 0.00 4 1018.2
20260904032726 70 219 4.0 6.0 0.00 0.00 0.00 4 1018.3
20260904031726 70 289 1.0 6.0 0.00 0.00 0.00 4 1018.4
20260904030726 70 249 1.0 4.0 0.00 0.00 0.00 4 1018.5
20260904025726 69 236 5.0 8.0 0.00 0.00 0.00 4 1018.7
20260904024726 70 245 3.0 9.0 0.00 0.00 0.00 4 1018.8
20260904023725 69 316 2.0 3.0 0.00 0.00 0.00 4 1019.0
20260904022725 69 255 1.0 5.0 0.00 0.00 0.00 4 1019.1
20260904021725 69 231 3.0 8.0 0.00 0.00 0.00 4 1019.4
20260904020725 69 309 4.0 7.0 0.00 0.00 0.00 4 1019.6
20260904015725 69 231 2.0 6.0 0.00 0.00 0.00 4 1019.7
20260904014725 69 280 3.0 10.0 0.00 0.00 0.00 4 1019.8
20260904013725 68 220 1.0 4.0 0.00 0.00 0.00 5 1020.1
20260904012725 68 236 4.0 9.0 0.00 0.00 0.00 4 1020.4
20260904011725 67 245 1.0 5.0 0.00 0.00 0.00 5 1020.6
20260904010725 67 232 6.0 11.0 0.00 0.00 0.00 5 1020.6
20260904005725 67 255 1.0 9.0 0.00 0.00 0.00 5 1020.8
20260904004725 67 248 4.0 9.0 0.00 0.00 0.00 5 1020.9
20260904003725 67 288 6.0 7.0 0.00 0.00 0.00 5 1020.9
20260904002725 66 312 3.0 7.0 0.00 0.00 0.00 5 1021.0
20260904001724 66 237 7.0 7.0 0.00 0.00 0.00 5 1021.2
20260904000724 65 253 4.0 11.0 0.00 0.00 0.00 5 1021.4
20260903235724 64 233 7.0 12.0 0.00 0.00 0.00 5 1021.4
20260903234724 64 211 6.0 13.0 0.00 0.00 0.00 5 1021.5
20260903233724 64 245 8.0 8.0 0.00 0.00 0.00 5 1021.5
20260903232724 64 222 3.0 9.0 0.00 0.00 0.00 5 1021.7
20260903231724 63 246 5.0 16.0 0.00 0.00 0.00 5 1021.8
20260903230724 62 250 13.0 13.0 0.00 0.00 0.00 5 1021.8
20260903225724 62 226 7.0 15.0 0.00 0.00 0.00 5 1022.0
20260903224724 62 268 9.0 16.0 0.00 0.00 0.00 5 1021.8
20260903223724 61 266 7.0 14.0 0.00 0.00 0.00 5 1021.9
20260903222724 61 292 8.0 13.0 0.00 0.00 0.00 6 1021.9
20260903221724 61 251 9.0 15.0 0.00 0.00 0.00 6 1021.9
20260903220724 60 218 3.0 12.0 0.00 0.00 0.00 6 1021.9
20260903215724 60 258 7.0 12.0 0.00 0.00 0.00 6 1021.8
20260903214724 59 239 5.0 10.0 0.00 0.00 0.00 6 1021.7
20260903213724 59 257 7.0 11.0 0.00 0.00 0.00 6 1021.6
20260903212724 59 240 11.0 13.0 0.00 0.00 0.00 6 1021.5
20260903211724 58 242 5.0 12.0 0.00 0.00 0.00 6 1021.6
20260903210724 57 243 3.0 11.0 0.00 0.00 0.00 6 1021.3
20260903205724 57 258 7.0 9.0 0.00 0.00 0.00 6 1021.3
20260903204723 57 238 4.0 10.0 0.00 0.00 0.00 6 1021.2
20260903203722 56 244 6.0 9.0 0.00 0.00 0.00 6 1021.2
20260903202722 56 243 5.0 9.0 0.00 0.00 0.00 6 1021.1
20260903201722 56 233 4.0 6.0 0.00 0.00 0.00 6 1021.1
20260903200722 56 250 5.0 8.0 0.00 0.00 0.00 6 1021.1
20260903195722 56 246 6.0 11.0 0.00 0.00 0.00 6 1020.9
20260903194722 56 246 6.0 9.0 0.00 0.00 0.00 6 1020.7
20260903193722 56 284 3.0 9.0 0.00 0.00 0.00 6 1020.4
20260903193231 56 246 4.0 9.0 0.00 0.00 0.00 6 1020.5
20260903192231 56 258 5.0 7.0 0.00 0.00 0.00 6 1020.4
20260903191231 56 246 8.0 9.0 0.00 0.00 0.00 6 1020.4
20260903190231 56 254 5.0 5.0 0.00 0.00 0.00 6 1020.3
20260903185231 56 251 2.0 6.0 0.00 0.00 0.00 6 1020.3
20260903184230 57 256 7.0 8.0 0.00 0.00 0.00 6 1020.0
20260903183230 57 249 3.0 5.0 0.00 0.00 0.00 6 1020.2
20260903182230 57 258 4.0 8.0 0.00 0.00 0.00 6 1019.6
20260903181230 57 259 7.0 7.0 0.00 0.00 0.00 6 1019.7
20260903180230 57 237 6.0 9.0 0.00 0.00 0.00 6 1019.3
20260903175230 57 241 2.0 5.0 0.00 0.00 0.00 6 1019.5
20260903174230 57 262 8.0 9.0 0.00 0.00 0.00 6 1019.3
20260903173230 57 215 2.0 10.0 0.00 0.00 0.00 6 1019.5
20260903172230 57 252 9.0 13.0 0.00 0.00 0.00 6 1019.3
20260903171230 57 246 3.0 10.0 0.00 0.00 0.00 6 1019.4
20260903170230 57 270 3.0 6.0 0.00 0.00 0.00 6 1019.5
20260903165230 57 249 3.0 10.0 0.00 0.00 0.00 6 1019.5
20260903164230 57 233 1.0 5.0 0.00 0.00 0.00 6 1019.7
20260903163230 57 0 0.0 1.0 0.00 0.00 0.00 6 1019.7
20260903162230 57 268 2.0 3.0 0.00 0.00 0.00 6 1019.8
20260903161230 58 268 4.0 7.0 0.00 0.00 0.00 6 1019.9
20260903160230 58 258 2.0 8.0 0.00 0.00 0.00 6 1020.0
20260903155230 58 240 2.0 6.0 0.00 0.00 0.00 6 1019.9
20260903154230 58 256 7.0 9.0 0.00 0.00 0.00 6 1019.8
20260903153230 58 259 7.0 11.0 0.00 0.00 0.00 6 1019.9
20260903152230 59 245 5.0 11.0 0.00 0.00 0.00 6 1020.1
20260903151230 59 264 12.0 13.0 0.00 0.00 0.00 6 1020.0
20260903150230 59 218 7.0 11.0 0.00 0.00 0.00 6 1020.1
20260903145230 58 224 6.0 11.0 0.00 0.00 0.00 6 1020.3
20260903144230 58 232 2.0 5.0 0.00 0.00 0.00 6 1020.4
20260903143229 58 0 0.0 2.0 0.00 0.00 0.00 6 1020.4
20260903142229 58 232 3.0 4.0 0.00 0.00 0.00 6 1020.3